Flag for U.S.A. Weather past 2 weeks in Marengo, Indiana, U.S.A.

Now
59 °F

Sunny.


Feels Like: 57 °F
Forecast: 42 / 64 °F
Wind: 13 mph from Northeast

Location: Bowling Green-Warren County Regional Airport

Current Time: Apr 28, 2015 at 1:02:18 PM

Latest Report: Apr 28, 2015 at 11:53 AM


Visibility: 10 mi

Pressure: 30.05 "Hg

Humidity: 51%

Dew point: 41 °F

Location of MarengoLocation

Historic Weather in Marengo — Graph

°F

Marengo temperature yesterday

Maximum temperature yesterday: 67 °F (at 3:53 PM)
Minimum temperature yesterday: 44 °F (at 6:53 AM)
Average temperature yesterday: 56 °F

Past Weeks' High & Low Weather Summary

 TemperatureHumidityPressure
High81 °F (Apr 25, 4:53 PM)94% (Apr 19, 9:53 AM)30.15 "Hg (Apr 19, 9:53 AM)
Low36 °F (Apr 24, 5:53 AM)21% (Apr 23, 6:53 PM)29.42 "Hg (Apr 25, 7:53 PM)
Average60 °F69%29.92 "Hg
* Reported Apr 13 11:53 AM — Apr 28 11:53 AM, Marengo, Weather by CustomWeather, © 2015

Note: Actual official high and low records may vary slightly from our data, if they occured in-between our weather recording intervals... More about our weather records

Advertising

Marengo weather history for previous 24 hours

 ConditionsComfort  
Time TempWeatherWind HumidityBarometerVisibility
11:53 AM
Tue, Apr 28
59 °FSunny.13 mph51%30.05 "Hg10 mi
10:53 AM56 °FSunny.9 mph55%30.05 "Hg10 mi
9:53 AM52 °FSunny.12 mph61%30.05 "Hg10 mi
8:53 AM50 °FSunny.8 mph68%30.06 "Hg10 mi
7:53 AM47 °FSunny.3 mph74%30.05 "Hg10 mi
6:53 AM43 °FSunny.3 mph79%30.03 "Hg10 mi
5:53 AM43 °FClear.5 mph79%30.01 "Hg10 mi
4:53 AM47 °FClear.7 mph71%30.01 "Hg10 mi
3:53 AM48 °FClear.6 mph68%30.01 "Hg10 mi
2:53 AM49 °FClear.3 mph66%30.02 "Hg10 mi
1:53 AM51 °FClear.5 mph63%30.02 "Hg10 mi
12:53 AM53 °FClear.6 mph59%30.02 "Hg10 mi
11:53 PM
Mon, Apr 27
54 °FClear.7 mph57%30.00 "Hg10 mi
10:53 PM55 °FClear.No wind53%30.00 "Hg10 mi
9:53 PM57 °FClear.No wind46%29.98 "Hg10 mi
8:53 PM60 °FClear.No wind39%29.96 "Hg10 mi
7:53 PM62 °FSunny.5 mph38%29.96 "Hg10 mi
6:53 PM65 °FSunny.10 mph32%29.95 "Hg10 mi
5:53 PM66 °FSunny.7 mph34%29.96 "Hg10 mi
4:53 PM67 °FSunny.6 mph36%29.96 "Hg10 mi
3:53 PM67 °FSunny.10 mph36%29.97 "Hg10 mi
2:53 PM65 °FSunny.8 mph34%29.97 "Hg10 mi
1:53 PM64 °FSunny.9 mph37%29.98 "Hg10 mi
Weather by CustomWeather, © 2015

See weather overviewHow to use our weather pages